Location: Hamilton
(37.7830°S, 175.2830°E)
Time: 02:54:03
(UTC+13:00)

SPOT 3 Rocket - Pass Details

Date: 24 January 2019
Orbit: 780 x 794 km, 98.8° (Epoch: 17 February)

Event Time Altitude Azimuth Distance (km) Brightness Sun altitude
Rises 21:58:27 0° 173° (S) 3,315 7.3 -14.2°
Reaches altitude 10° 22:00:51 10° 177° (S) 2,376 6.6 -14.6°
Maximum altitude 22:05:55 51° 252° (WSW) 994 4.5 -15.4°
Drops below altitude 10° 22:10:54 10° 326° (NW) 2,340 5.9 -16.1°
Sets 22:13:15 0° 331° (NNW) 3,259 6.6 -16.5°
